This is the latest recevied weather packets stored in our database for station/object WD4IXD-WX. If no packets are shown the sender has not sent any weather packets the latest 10 day(s).
| Time | Temp. | Humidity | Pressure | Rain* | Wind** | Luminosity | Snow |
|---|---|---|---|---|---|---|---|
| 1777907404 | 4.44° C | 60% | 1017.9 hPa | 0 mm | - | 383 W/m² | - |
| 1777907104 | 4.44° C | 60% | 1018.1 hPa | 0 mm | - | 343 W/m² | - |
| 1777906804 | 4.44° C | 63% | 1018.2 hPa | 0 mm | - | 262 W/m² | - |
| 1777906503 | 4.44° C | 62% | 1018.3 hPa | 0 mm | - | 281 W/m² | - |
| 1777906203 | 4.44° C | 62% | 1018.3 hPa | 0 mm | - | 336 W/m² | - |
| 1777905904 | 5° C | 60% | 1018.1 hPa | 0 mm | - | 290 W/m² | - |
| 1777905604 | 5.56° C | 56% | 1018.2 hPa | 0 mm | - | 250 W/m² | - |
| 1777905304 | 5° C | 55% | 1018.2 hPa | 0 mm | - | 241 W/m² | - |
| 1777905004 | 5° C | 55% | 1018.2 hPa | 0 mm | - | 244 W/m² | - |
| 1777904704 | 4.44° C | 55% | 1018.2 hPa | 0 mm | - | 211 W/m² | - |
| 1777904404 | 3.89° C | 55% | 1018.1 hPa | 0 mm | - | 176 W/m² | - |
| 1777904104 | 3.89° C | 55% | 1018 hPa | 0 mm | - | 165 W/m² | - |
| 1777903804 | 3.89° C | 54% | 1018 hPa | 0 mm | - | 162 W/m² | - |
| 1777903504 | 3.89° C | 53% | 1018 hPa | 0 mm | - | 156 W/m² | - |
| 1777903204 | 3.89° C | 53% | 1018 hPa | 0 mm | - | 165 W/m² | - |
| 1777902905 | 3.33° C | 52% | 1017.9 hPa | 0 mm | - | 185 W/m² | - |
| 1777902604 | 3.33° C | 52% | 1017.9 hPa | 0 mm | - | 185 W/m² | - |
| 1777902304 | 2.78° C | 52% | 1017.9 hPa | 0 mm | - | 311 W/m² | - |
| 1777902004 | 2.78° C | 54% | 1017.8 hPa | 0 mm | - | 306 W/m² | - |
| 1777901704 | 2.22° C | 55% | 1017.8 hPa | 0 mm | - | 118 W/m² | - |
| 1777901404 | 1.67° C | 56% | 1017.8 hPa | 0 mm | - | 74 W/m² | - |
| 1777901103 | 1.67° C | 55% | 1017.7 hPa | 0 mm | - | 46 W/m² | - |
| 1777900804 | 1.67° C | 55% | 1017.7 hPa | 0 mm | - | 39 W/m² | - |
| 1777900504 | 1.67° C | 55% | 1017.5 hPa | 0 mm | - | 39 W/m² | - |
| 1777900204 | 1.67° C | 55% | 1017.6 hPa | 0 mm | - | 46 W/m² | - |
* Rain latest hour (hover to see other rain measurements)
** Current wind speed in m/s (hover to see current wind gust speed)